Home   Weather   Bitburg   Past weeks

Flag for Germany Past Weather in Bitburg, Rhineland-Palatinate, Germany — Yesterday and Last 2 Weeks

Now
54 °F

Light rain. Passing clouds.


Feels Like: 54 °F
Forecast: 52 / 59 °F
Wind: 2 mph from North

Location: Spangdahlem

Current Time: Oct 1, 2016 at 1:54:14 AM

Latest Report: Oct 1, 2016 at 1:04 AM


Visibility: N/A

Pressure: 29.93 "Hg

Humidity: 94%

Dew Point: 52 °F

Location of BitburgLocation

Past Weather in Bitburg — Graph

°F

Bitburg Temperature Yesterday

Maximum temperature yesterday: 59 °F (at 4:58 PM)
Minimum temperature yesterday: 53 °F (at 10:58 PM)
Average temperature yesterday: 56 °F

High & Low Weather Summary for the Past Weeks

 TemperatureHumidityPressure
High75 °F (Sep 24, 2:58 PM)100% (Sep 16, 5:58 AM)30.37 "Hg (Sep 16, 5:58 AM)
Low40 °F (Sep 22, 7:58 AM)38% (Sep 24, 4:58 PM)29.89 "Hg (Sep 15, 11:58 PM)
Average58 °F76%30.10 "Hg
* Reported Sep 15 11:58 PM — Sep 30 11:58 PM, Bitburg, Weather by CustomWeather, © 2016

Note: Actual official high and low records may vary slightly from our data, if they occured in-between our weather recording intervals... More about our weather records

Advertising

Bitburg Weather History for the Previous 24 Hours

Scroll right to see more
 ConditionsComfort  
Time TempWeatherWind HumidityBarometerVisibility
11:58 PM
Fri, Sep 30
54 °FOvercast.No wind100%29.92 "HgN/A
10:58 PM53 °FPassing clouds.3 mph97%29.93 "HgN/A
9:58 PM54 °FClear.No wind94%29.95 "HgN/A
8:58 PM54 °FPassing clouds.No wind92%29.96 "HgN/A
7:58 PM54 °FPassing clouds.1 mph91%29.96 "HgN/A
6:58 PM55 °FSunny.3 mph89%29.96 "HgN/A
6:04 PM57 °FPassing clouds.7 mph82%29.99 "HgN/A
5:59 PM57 °FPassing clouds.7 mph82%30.00 "HgN/A
4:58 PM59 °FScattered clouds.5 mph77%29.96 "HgN/A
3:58 PM57 °FMostly cloudy.7 mph88%29.96 "HgN/A
2:58 PM57 °FSunny.8 mph88%29.97 "HgN/A
2:04 PM55 °FBroken clouds.8 mph94%30.02 "HgN/A
1:03 PM55 °FBroken clouds.9 mph94%30.01 "HgN/A
12:59 PM55 °FBroken clouds.8 mph94%30.01 "HgN/A
11:58 AM55 °FLight rain. Cloudy.7 mph94%29.97 "HgN/A
11:04 AM55 °FDrizzle. Overcast.7 mph94%30.01 "HgN/A
10:58 AM55 °FLight rain. Mostly cloudy.6 mph93%29.96 "HgN/A
10:00 AM55 °FLight rain. Mostly cloudy.5 mph88%30.00 "HgN/A
9:58 AM55 °FDrizzle. More clouds than sun.5 mph88%29.96 "HgN/A
8:59 AM55 °FMore clouds than sun.3 mph88%29.99 "HgN/A
7:58 AM54 °FPartly sunny.No wind88%29.93 "HgN/A
6:58 AM55 °FMostly cloudy.2 mph85%29.93 "HgN/A
5:58 AM55 °FOvercast.2 mph86%29.92 "HgN/A
4:58 AM56 °FOvercast.8 mph87%29.91 "HgN/A
3:58 AM57 °FMostly cloudy.8 mph94%29.93 "HgN/A
3:02 AM57 °FPassing clouds.6 mph94%29.99 "HgN/A
1:58 AM57 °FPassing clouds.6 mph91%29.94 "HgN/A
Weather by CustomWeather, © 2016

See weather overviewHow to use our weather pages